Year,Month,Day,Hour,Minute,Value (Times are PST for temperature in C)
2008,12,01,00,00,8.60
2008,12,01,00,01,8.60
2008,12,01,00,02,8.60
2008,12,01,00,03,8.60
2008,12,01,00,04,8.60
2008,12,01,00,05,8.60
2008,12,01,00,06,8.60
2008,12,01,00,07,8.60
2008,12,01,00,08,8.60
2008,12,01,00,09,8.60
2008,12,01,00,10,8.60
2008,12,01,00,11,8.60
2008,12,01,00,12,8.60
2008,12,01,00,13,8.60
2008,12,01,00,14,8.60
2008,12,01,00,15,8.60
2008,12,01,00,16,8.60
2008,12,01,15,02,8.80
2008,12,01,15,03,8.80
2008,12,01,15,04,8.80
2008,12,01,15,05,8.80
2008,12,01,15,06,8.80
2008,12,01,15,07,8.80
2008,12,01,15,08,8.80
2008,12,01,15,09,8.80
2008,12,01,15,10,8.80
2008,12,01,15,11,8.80
2008,12,01,15,12,8.80
2008,12,01,15,13,8.80
2008,12,01,15,14,8.80
2008,12,01,15,15,8.80
2008,12,01,15,16,8.80
2008,12,01,15,17,8.90
2008,12,01,15,18,8.80
2008,12,01,15,19,8.80
2008,12,01,15,20,8.80
2008,12,01,15,21,8.80
2008,12,01,15,22,8.80
2008,12,01,15,23,8.80
2008,12,01,15,24,8.90
2008,12,01,15,25,8.90
2008,12,01,15,26,8.90
2008,12,01,15,27,8.90
2008,12,01,15,28,8.80
2008,12,01,15,29,8.80
2008,12,01,15,30,8.90
2008,12,01,15,31,8.90
2008,12,01,15,32,8.90
2008,12,01,15,33,8.90
2008,12,01,15,34,8.90
2008,12,01,15,35,8.90
2008,12,01,15,36,8.90
2008,12,01,15,37,8.90
2008,12,01,15,38,8.90
2008,12,01,15,39,8.90
2008,12,01,15,40,8.90
2008,12,01,15,41,8.90
2008,12,01,15,42,8.90
2008,12,01,15,43,8.90
2008,12,01,15,44,8.90
2008,12,01,15,45,8.90
2008,12,01,15,46,8.90
2008,12,01,15,47,8.90
2008,12,01,15,48,8.90
2008,12,01,15,49,8.90
2008,12,01,15,50,8.90
2008,12,01,15,51,8.90
2008,12,01,15,52,8.90
2008,12,01,15,53,8.90
2008,12,01,15,54,8.90
2008,12,01,15,55,8.90
2008,12,01,15,56,8.90
2008,12,01,15,57,8.90
2008,12,01,15,58,8.80
2008,12,01,15,59,8.80
2008,12,01,16,00,8.80
2008,12,01,16,01,8.80
2008,12,01,16,02,8.80
2008,12,01,16,03,8.80
2008,12,01,16,04,8.90
2008,12,01,16,05,8.90
2008,12,01,16,06,8.90
2008,12,01,16,07,8.90
2008,12,01,16,08,8.90
2008,12,01,16,09,8.90
2008,12,01,16,10,8.90
2008,12,01,16,11,8.90
2008,12,01,16,12,8.90
2008,12,01,16,13,8.90
2008,12,01,16,14,8.90
2008,12,01,16,15,8.90
2008,12,01,16,16,8.90
2008,12,01,16,17,8.90
2008,12,01,16,18,8.90
2008,12,01,16,19,8.90
2008,12,01,16,20,8.90
2008,12,01,16,21,8.90
2008,12,01,16,22,8.90
2008,12,01,16,23,8.90
2008,12,01,16,24,8.90
2008,12,01,16,25,8.90
2008,12,01,16,26,8.90
2008,12,01,16,27,8.90
2008,12,01,16,28,8.90
2008,12,01,16,29,8.90
2008,12,01,16,30,8.90
2008,12,01,16,31,8.90
2008,12,01,16,32,8.90
2008,12,01,16,33,8.90
2008,12,01,16,34,8.90
2008,12,01,16,35,8.90
2008,12,01,16,36,8.90
2008,12,01,16,37,8.90
2008,12,01,16,38,8.90
2008,12,01,16,39,8.90
2008,12,01,16,40,8.90
2008,12,01,16,41,8.90
2008,12,01,16,42,9.00
2008,12,01,16,43,9.00
2008,12,01,16,44,9.00
2008,12,01,16,45,9.00
2008,12,01,16,46,9.00
2008,12,01,16,47,9.00
2008,12,01,16,48,9.00
2008,12,01,16,49,9.00
2008,12,01,16,50,9.00
2008,12,01,16,51,9.00
2008,12,01,16,52,9.00
2008,12,01,16,53,9.00
2008,12,01,16,54,9.00
2008,12,01,16,55,9.00
2008,12,01,16,56,9.00
2008,12,01,16,57,9.00
2008,12,01,16,58,9.00
2008,12,01,16,59,9.00
2008,12,01,17,00,9.00
2008,12,01,17,01,9.00
2008,12,01,17,02,9.00
2008,12,01,17,03,9.00
2008,12,01,17,04,9.00
2008,12,01,17,05,9.00
2008,12,01,17,06,9.00
2008,12,01,17,07,9.00
2008,12,01,17,08,9.00
2008,12,01,17,09,9.00
2008,12,01,17,10,9.00
2008,12,01,17,11,9.00
2008,12,01,17,12,9.00
2008,12,01,17,13,9.00
2008,12,01,17,14,9.00
2008,12,01,17,15,9.00
2008,12,01,17,16,8.90
2008,12,01,17,17,8.90
2008,12,01,17,18,8.90
2008,12,01,17,19,8.90
2008,12,01,17,20,8.90
2008,12,01,17,21,8.90
2008,12,01,17,22,8.90
2008,12,01,17,23,8.90
2008,12,01,17,24,8.90
2008,12,01,17,25,8.90
2008,12,01,17,26,8.90
2008,12,01,17,27,8.90
2008,12,01,17,28,8.90
2008,12,01,17,29,8.90
2008,12,01,17,30,8.90
2008,12,01,17,31,8.90
2008,12,01,17,32,8.90
2008,12,01,17,33,8.90
2008,12,01,17,34,8.90
2008,12,01,17,35,8.90
2008,12,01,17,36,8.90
2008,12,01,17,37,8.90
2008,12,01,17,38,8.90
2008,12,01,17,39,8.80
2008,12,01,17,40,8.80
2008,12,01,17,41,8.80
2008,12,01,17,42,8.80
2008,12,01,17,43,8.80
2008,12,01,17,44,8.80
2008,12,01,17,45,8.80
2008,12,01,17,46,8.80
2008,12,01,17,47,8.80
2008,12,01,17,48,8.80
2008,12,01,17,49,8.80
2008,12,01,17,50,8.80
2008,12,01,17,51,8.80
2008,12,01,17,52,8.80
2008,12,01,17,53,8.70
2008,12,01,17,54,8.70
2008,12,01,17,55,8.70
2008,12,01,17,56,8.70
2008,12,01,17,57,8.70
2008,12,01,17,58,8.70
2008,12,01,17,59,8.70
2008,12,01,18,00,8.70
2008,12,01,18,01,8.70
2008,12,01,18,02,8.70
2008,12,01,18,03,8.70
2008,12,01,18,04,8.70
2008,12,01,18,05,8.70
2008,12,01,18,06,8.70
2008,12,01,18,07,8.70
2008,12,01,18,08,8.70
2008,12,01,18,09,8.70
2008,12,01,18,10,8.70
2008,12,01,18,11,8.80
2008,12,01,18,12,8.80
2008,12,01,18,13,8.80
2008,12,01,18,14,8.80
2008,12,01,18,15,8.80
2008,12,01,18,16,8.80
2008,12,01,18,17,8.80
2008,12,01,18,18,8.80
2008,12,01,18,19,8.80
2008,12,01,18,20,8.70
2008,12,01,18,21,8.70
2008,12,01,18,22,8.70
2008,12,01,18,23,8.70
2008,12,01,18,24,8.70
2008,12,01,18,25,8.70
2008,12,01,18,26,8.70
2008,12,01,18,27,8.70
2008,12,01,18,28,8.70
2008,12,01,18,29,8.70
2008,12,01,18,30,8.70
2008,12,01,18,31,8.70
2008,12,01,18,32,8.70
2008,12,01,18,33,8.70
2008,12,01,18,34,8.70
2008,12,01,18,35,8.70
2008,12,01,18,36,8.70
2008,12,01,18,37,8.70
2008,12,01,18,38,8.70
2008,12,01,18,39,8.70
2008,12,01,18,40,8.70
2008,12,01,18,41,8.70
2008,12,01,18,42,8.80
2008,12,01,18,43,8.80
2008,12,01,18,44,8.80
2008,12,01,18,45,8.80
2008,12,01,18,46,8.80
2008,12,01,18,47,8.80
2008,12,01,18,48,8.80
2008,12,01,18,49,8.80
2008,12,01,18,50,8.80
2008,12,01,18,51,8.80
2008,12,01,18,52,8.80
2008,12,01,18,53,8.80
2008,12,01,18,54,8.80
2008,12,01,18,55,8.80
2008,12,01,18,56,8.90
2008,12,01,18,57,8.90
2008,12,01,18,58,8.90
2008,12,01,18,59,8.90
2008,12,01,19,00,8.90
2008,12,01,19,01,8.90
2008,12,01,19,02,8.90
2008,12,01,19,03,8.90
2008,12,01,19,04,8.90
2008,12,01,19,05,8.90
2008,12,01,19,06,8.90
2008,12,01,19,07,8.90
2008,12,01,19,08,8.90
2008,12,01,19,09,8.90
2008,12,01,19,10,8.90
2008,12,01,19,11,8.90
2008,12,01,19,12,8.90
2008,12,01,19,13,8.90
2008,12,01,19,14,8.90
2008,12,01,19,15,8.90
2008,12,01,19,16,8.90
2008,12,01,19,17,8.90
2008,12,01,19,18,8.90
2008,12,01,19,19,8.90
2008,12,01,19,20,8.90
2008,12,01,19,21,9.00
2008,12,01,19,22,8.90
2008,12,01,19,23,8.90
2008,12,01,19,24,9.00
2008,12,01,19,25,9.00
2008,12,01,19,26,9.00
2008,12,01,19,27,9.00
2008,12,01,19,28,9.00
2008,12,01,19,29,9.00
2008,12,01,19,30,9.00
2008,12,01,19,31,9.00
2008,12,01,19,32,9.00
2008,12,01,19,33,9.00
2008,12,01,19,34,9.00
2008,12,01,19,35,9.00
2008,12,01,19,36,9.00
2008,12,01,19,37,9.00
2008,12,01,19,38,9.00
2008,12,01,19,39,9.00
2008,12,01,19,40,9.00
2008,12,01,19,41,9.00
2008,12,01,19,42,9.00
2008,12,01,19,43,9.00
2008,12,01,19,44,9.00
2008,12,01,19,45,9.10
2008,12,01,19,46,9.10
2008,12,01,19,47,9.10
2008,12,01,19,48,9.10
2008,12,01,19,49,9.10
2008,12,01,19,50,9.10
2008,12,01,19,51,9.10
2008,12,01,19,52,9.10
2008,12,01,19,53,9.10
2008,12,01,19,54,9.10
2008,12,01,19,55,9.10
2008,12,01,19,56,9.10
2008,12,01,19,57,9.10
2008,12,01,19,58,9.10
2008,12,01,19,59,9.10
2008,12,01,20,00,9.10
2008,12,01,20,01,9.10
2008,12,01,20,02,9.10
2008,12,01,20,03,9.10
2008,12,01,20,04,9.10
2008,12,01,20,05,9.10
2008,12,01,20,06,9.10
2008,12,01,20,07,9.10
2008,12,01,20,08,9.10
2008,12,01,20,09,9.10
2008,12,01,20,10,9.10
2008,12,01,20,11,9.10
2008,12,01,20,12,9.10
2008,12,01,20,13,9.10
2008,12,01,20,14,9.10
2008,12,01,20,15,9.10
2008,12,01,20,16,9.10
2008,12,01,20,17,9.10
2008,12,01,20,18,9.10
2008,12,01,20,19,9.10
2008,12,01,20,20,9.10
2008,12,01,20,21,9.10
2008,12,01,20,22,9.10
2008,12,01,20,23,9.10
2008,12,01,20,24,9.10
2008,12,01,20,25,9.10
2008,12,01,20,26,9.10
2008,12,01,20,27,9.10
2008,12,01,20,28,9.10
2008,12,01,20,29,9.10
2008,12,01,20,30,9.10
2008,12,01,20,31,9.10
2008,12,01,20,32,9.10
2008,12,01,20,33,9.10
2008,12,01,20,34,9.10
2008,12,01,20,35,9.10
2008,12,01,20,36,9.10
2008,12,01,20,37,9.10
2008,12,01,20,38,9.10
2008,12,01,20,39,9.10
2008,12,01,20,40,9.00
2008,12,01,20,41,9.00
2008,12,01,20,42,9.00
2008,12,01,20,43,9.00
2008,12,01,20,44,9.00
2008,12,01,20,45,9.00
2008,12,01,20,46,9.00
2008,12,01,20,47,9.00
2008,12,01,20,48,9.00
2008,12,01,20,49,9.00
2008,12,01,20,50,9.00
2008,12,01,20,51,9.00
2008,12,01,20,52,9.00
2008,12,01,20,53,9.00
2008,12,01,20,54,8.90
2008,12,01,20,55,8.90
2008,12,01,20,56,8.90
2008,12,01,20,57,8.90
2008,12,01,20,58,8.90
2008,12,01,20,59,8.90
2008,12,01,21,00,8.90
2008,12,01,21,01,8.90
2008,12,01,21,02,8.90
2008,12,01,21,03,8.90
2008,12,01,21,04,8.90
2008,12,01,21,05,8.90
2008,12,01,21,06,8.90
2008,12,01,21,07,8.80
2008,12,01,21,08,8.80
2008,12,01,21,09,8.80
2008,12,01,21,10,8.80
2008,12,01,21,11,8.80
2008,12,01,21,12,8.80
2008,12,01,21,13,8.70
2008,12,01,21,14,8.70
2008,12,01,21,15,8.70
2008,12,01,21,16,8.70
2008,12,01,21,17,8.70
2008,12,01,21,18,8.70
2008,12,01,21,19,8.70
2008,12,01,21,20,8.70
2008,12,01,21,21,8.60
2008,12,01,21,22,8.60
2008,12,01,21,23,8.60
2008,12,01,21,24,8.60
2008,12,01,21,25,8.60
2008,12,01,21,26,8.60
2008,12,01,21,27,8.60
2008,12,01,21,28,8.60
2008,12,01,21,29,8.60
2008,12,01,21,30,8.60
2008,12,01,21,31,8.60
2008,12,01,21,32,8.60
2008,12,01,21,33,8.60
2008,12,01,21,34,8.60
2008,12,01,21,35,8.60
2008,12,01,21,36,8.60
2008,12,01,21,37,8.60
2008,12,01,21,38,8.60
2008,12,01,21,39,8.60
2008,12,01,21,40,8.60
2008,12,01,21,41,8.70
2008,12,01,21,42,8.70
2008,12,01,21,43,8.70
2008,12,01,21,44,8.70
2008,12,01,21,45,8.70
2008,12,01,21,46,8.70
2008,12,01,21,47,8.70
2008,12,01,21,48,8.70
2008,12,01,21,49,8.70
2008,12,01,21,50,8.70
2008,12,01,21,51,8.70
2008,12,01,21,52,8.70
2008,12,01,21,53,8.70
2008,12,01,21,54,8.70
2008,12,01,21,55,8.60
2008,12,01,21,56,8.60
2008,12,01,21,57,8.60
2008,12,01,21,58,8.60
2008,12,01,21,59,8.70
2008,12,01,22,00,8.70
2008,12,01,22,01,8.70
2008,12,01,22,02,8.70
2008,12,01,22,03,8.70
2008,12,01,22,04,8.60
2008,12,01,22,05,8.60
2008,12,01,22,06,8.60
2008,12,01,22,07,8.50
2008,12,01,22,08,8.50
2008,12,01,22,09,8.50
2008,12,01,22,10,8.40
2008,12,01,22,11,8.40
2008,12,01,22,12,8.40
2008,12,01,22,13,8.40
2008,12,01,22,14,8.30
2008,12,01,22,15,8.30
2008,12,01,22,16,8.30
2008,12,01,22,17,8.30
2008,12,01,22,18,8.30
2008,12,01,22,19,8.40
2008,12,01,22,20,8.40
2008,12,01,22,21,8.40
2008,12,01,22,22,8.40
2008,12,01,22,23,8.40
2008,12,01,22,24,8.40
2008,12,01,22,25,8.40
2008,12,01,22,26,8.40
2008,12,01,22,27,8.40
2008,12,01,22,28,8.40
2008,12,01,22,29,8.40
2008,12,01,22,30,8.40
2008,12,01,22,31,8.40
2008,12,01,22,32,8.30
2008,12,01,22,33,8.30
2008,12,01,22,34,8.30
2008,12,01,22,35,8.30
2008,12,01,22,36,8.30
2008,12,01,22,37,8.30
2008,12,01,22,38,8.30
2008,12,01,22,39,8.30
2008,12,01,22,40,8.30
2008,12,01,22,41,8.30
2008,12,01,22,42,8.30
2008,12,01,22,43,8.30
2008,12,01,22,44,8.30
2008,12,01,22,45,8.40
2008,12,01,22,46,8.40
2008,12,01,22,47,8.40
2008,12,01,22,48,8.40
2008,12,01,22,49,8.40
2008,12,01,22,50,8.40
2008,12,01,22,51,8.40
2008,12,01,22,52,8.40
2008,12,01,22,53,8.40
2008,12,01,22,54,8.40
2008,12,01,22,55,8.40
2008,12,01,22,56,8.30
2008,12,01,22,57,8.30
2008,12,01,22,58,8.30
2008,12,01,22,59,8.30
2008,12,01,23,00,8.30
2008,12,01,23,01,8.20
2008,12,01,23,02,8.20
2008,12,01,23,03,8.20
2008,12,01,23,04,8.20
2008,12,01,23,05,8.20
2008,12,01,23,06,8.20
2008,12,01,23,07,8.20
2008,12,01,23,08,8.20
2008,12,01,23,09,8.20
2008,12,01,23,10,8.10
2008,12,01,23,11,8.10
2008,12,01,23,12,8.10
2008,12,01,23,13,8.10
2008,12,01,23,14,8.10
2008,12,01,23,15,8.00
2008,12,01,23,16,8.00
2008,12,01,23,17,8.00
2008,12,01,23,18,8.00
2008,12,01,23,19,8.00
2008,12,01,23,20,8.00
2008,12,01,23,21,8.00
2008,12,01,23,22,7.90
2008,12,01,23,23,7.90
2008,12,01,23,24,7.90
2008,12,01,23,25,7.90
2008,12,01,23,26,7.80
2008,12,01,23,27,7.80
2008,12,01,23,28,7.80
2008,12,01,23,29,7.80
2008,12,01,23,30,7.80
2008,12,01,23,31,7.80
2008,12,01,23,32,7.80
2008,12,01,23,33,7.80
2008,12,01,23,34,7.80
2008,12,01,23,35,7.80
2008,12,01,23,36,7.80
2008,12,01,23,37,7.80
2008,12,01,23,38,7.80
2008,12,01,23,39,7.80
2008,12,01,23,40,7.80
2008,12,01,23,41,7.80
2008,12,01,23,42,7.80
2008,12,01,23,43,7.90
2008,12,01,23,44,7.90
2008,12,01,23,45,7.90
2008,12,01,23,46,7.90
2008,12,01,23,47,7.90
2008,12,01,23,48,7.90
2008,12,01,23,49,8.00
2008,12,01,23,50,8.10
2008,12,01,23,51,8.20
2008,12,01,23,52,8.20
2008,12,01,23,53,8.30
2008,12,01,23,54,8.30
2008,12,01,23,55,8.40
2008,12,01,23,56,8.50
2008,12,01,23,57,8.60
2008,12,01,23,58,8.60
2008,12,01,23,59,8.70
